Regional Weather Roundup
Issued by NWS

Home | Current Version | Previous Version | Text Only | Print | Product List | Glossary Off
Versions: 1 2 3 4 5 6 7 8 9 10 11 12 13 14 15 16 17 18 19 20 21 22 23 24 25 26 27 28 29 30 31 32 33 34 35 36 37 38 39 40 41 42 43 44 45 46 47

000
ASUS45 KSLC 192210
RWRUT

UTAH REGIONAL WEATHER ROUNDUP
NATIONAL WEATHER SERVICE SALT LAKE CITY UT
400 PM MDT FRI SEP 19 2014

UTZ001>011-023>025-192300-

NORTHERN UTAH

CITY           SKY/WX    TMP DP  RH WIND       PRES   REMARKS
HILL AFB       SUNNY     80  48  32 NW10      30.06F
LOGAN          SUNNY     79  50  36 NW6       30.05F
OGDEN          SUNNY     83  46  27 NW10      30.03F
PROVO AIRPORT  MOSUNNY   81  55  41 NW10      30.03F
SALT LAKE CITY MOSUNNY   81  50  33 NW10      30.01F
VERNAL         MOSUNNY   80  47  31 CALM      30.04F
WENDOVER       SUNNY     82  41  23 E8        30.04F
HEBER CITY     MOSUNNY   82  45  26 N8        30.07S
WEST JORDAN    SUNNY     81  50  34 NW14      30.05F

$$

UTZ012>022-026-027-192300-

SOUTHERN UTAH

CITY           SKY/WX    TMP DP  RH WIND       PRES   REMARKS
BRYCE CANYON   MOSUNNY   75  43  31 VRB6      30.21F
CEDAR CITY     SUNNY     82  42  24 NW8       30.06F
MILFORD        SUNNY     87  43  21 VRB7      30.01F
MOAB/CYNLANDS  SUNNY     90  41  18 VRB7      29.93F
PRICE          PTSUNNY   83  41  22 VRB6      30.07F
ST GEORGE      PTCLDY    91  52  25 NW6       29.88F

$$

REGIONAL REPORTS     COLORADO/ARIZONA

CITY           SKY/WX    TMP DP  RH WIND       PRES   REMARKS
CRAIG, CO      SUNNY     82  43  25 W15       30.08F
GRAND JUNCTION SUNNY     86  42  21 NW7       29.97F
RIFLE          SUNNY     86  31  13 W8        30.01F
MONTROSE       MOSUNNY   86  41  20 NW9       30.05F
CORTEZ         SUNNY     85  43  22 W13G21    30.05F
PAGE, AZ       PTSUNNY   92  46  20 N6        29.95F
GRAND CANYON   TSTM      64  61  90 VRB5      30.16S
KINGMAN        SUNNY     89  42  19 SW14G26   29.93F
FLAGSTAFF      CLOUDY    62  58  86 SW6       30.19F

$$

REGIONAL REPORTS    NEVADA/IDAHO/WYOMING

CITY           SKY/WX    TMP DP  RH WIND       PRES   REMARKS
LAS VEGAS, NV  MOSUNNY   96  38  13 E7        29.79F HX  91
ELY            SUNNY     81  36  19 S12       30.11F
ELKO           SUNNY     83  38  20 NE5       30.06F
POCATELLO, ID  SUNNY     79  41  25 SW15G23   30.07F
BURLEY         SUNNY     75  46  35 W12       30.06F
EVANSTON, WY   SUNNY     75  42  30 W9        30.19F
ROCK SPRINGS   SUNNY     75  36  24 SW16G23   30.15S

$$



USA.gov is the U.S. government's official web portal to all federal, state and local government web resources and services.